FENGYUN 1C DEB, 31557

Orbit data source: Space-Track

FENGYUN 1C DEB, 31557 is space debris in SSO originally from a launch on Mon, 10 May 1999 UTC launched from the Taiyaun Space Center, China (TSC). Fengyun 1C debris stems from the Chinese weather satellite Fengyun-1C, which was intentionally destroyed by a Chinese anti-satellite missile in 2007. This event dramatically increased the amount of space debris, with thousands of trackable fragments posing hazards to satellites and human spaceflight. The Fengyun 1C debris cloud has become a focal point in discussions about space sustainability and the need for international regulations to prevent the creation of new debris.

Loading next visibility...
Identifier
31557, 1999-025BYY
Orbit
SSO
Country
Flag of CNCN / PRC
Related business
Manufacturer
Unknown
Mission
Spacecraft
Bus & Motor
Unknown
Mass
Unknown
Launch date (UTC)
1999-05-10 (27 years ago)
Launch vehicle
Unknown
Launch site
Taiyaun Space Center, China (TSC)
Object type
Payload
Rocket body
Debris
Shape & HBR
Unknown shape, 0.1 m
Radar Cross Section
Small (<0.1 m²)

Expand to show TLE details & history
Last TLE update: 6 months ago

TLE from 6 months ago
0 FENGYUN 1C DEB
1 31557U 99025BYY 25255.68695181  .00000480  00000-0  13957-3 0  9999
2 31557  98.2776 241.4685 0172348 186.5240 173.3705 14.40453230597882
Epoch: 2025-09-12T16:29Z
TLE epoch observation values (Epoch: 2025-09-12T16:29:12.636Z)
Latitude
-0.00005°
Longitude
2.23477°
Altitude
882.161 km
Speed
7.347 km/s
True Right ascension
16h 05m 52s
True Declination
0° 00' 00"
Sunlit
Object was in daylight at epoch
Visualization orbit readout
Latitude
Unknown
Longitude
Unknown
Altitude
Unknown
Speed
Unknown
Apparent Right ascension
Unknown
Apparent Declination
Unknown
Sunlit
N/A
Visualization observer readout
Local Sidereal Time
15:31:07
Azimuth
Unknown
Elevation
Unknown
Doppler factor
Unknown
Orbital elements
Apogee altitude
877.034 km
Perigee altitude
631.188 km
Semi-major axis
7,132.248 km
Eccentricity
0.01723
Inclination
98.2776°
RAAN
241.4685°
Arg. of periapsis
186.524°
True anomaly
173.59373°
Mean anomaly
173.3705°
Eccentric anomaly
173.48258°
Mean motion
3.60333 °/min
Orbital period
99.91 mins
BSTAR
0.00013957
Loading maneuver chart data...
Computing Atmospheric mass density...

Documentation

Showing up to 5 results
|